Time,TemperatureF,DewpointF,PressureIn,WindDirection,WindDirectionDegrees,WindSpeedMPH,WindSpeedGustMPH,Humidity,HourlyPrecipIn,Conditions,Clouds,dailyrainin,SoftwareType,DateUTC
2013-04-29 00:11:00,48.3,46.0,29.90,SW,228,0.0,7.0,90,0.00,,,0.00,weatherlink.com 1.10,2013-04-29 07:11:00,
2013-04-29 00:27:00,48.1,46.0,29.89,NE,34,0.0,5.0,91,0.00,,,0.00,weatherlink.com 1.10,2013-04-29 07:27:00,
2013-04-29 00:42:00,48.0,46.0,29.89,NW,321,2.0,4.0,93,0.01,,,0.01,weatherlink.com 1.10,2013-04-29 07:42:00,
2013-04-29 00:57:00,47.7,46.0,29.88,ENE,58,2.0,5.0,94,0.02,,,0.02,weatherlink.com 1.10,2013-04-29 07:57:00,
2013-04-29 01:12:00,47.5,46.0,29.87,WSW,256,3.0,7.0,95,0.03,,,0.03,weatherlink.com 1.10,2013-04-29 08:12:00,
2013-04-29 01:27:00,47.6,46.0,29.87,NE,47,0.0,3.0,95,0.04,,,0.04,weatherlink.com 1.10,2013-04-29 08:27:00,
2013-04-29 01:42:00,47.9,47.0,29.88,West,267,2.0,4.0,95,0.03,,,0.04,weatherlink.com 1.10,2013-04-29 08:42:00,
2013-04-29 01:57:00,48.2,47.0,29.88,WNW,290,2.0,3.0,96,0.02,,,0.04,weatherlink.com 1.10,2013-04-29 08:57:00,
2013-04-29 02:12:00,48.6,48.0,29.88,West,277,1.0,6.0,96,0.01,,,0.04,weatherlink.com 1.10,2013-04-29 09:12:00,
2013-04-29 02:27:00,48.7,48.0,29.89,East,99,0.0,2.0,96,0.01,,,0.05,weatherlink.com 1.10,2013-04-29 09:27:00,
2013-04-29 02:42:00,47.6,46.0,29.90,WSW,238,3.0,7.0,95,0.02,,,0.06,weatherlink.com 1.10,2013-04-29 09:42:00,
2013-04-29 02:57:00,46.4,45.0,29.90,SW,214,1.0,6.0,94,0.02,,,0.06,weatherlink.com 1.10,2013-04-29 09:57:00,
2013-04-29 03:12:00,45.8,44.0,29.90,South,170,0.0,3.0,94,0.02,,,0.06,weatherlink.com 1.10,2013-04-29 10:12:00,
2013-04-29 03:27:00,45.1,43.0,29.91,SSE,158,0.0,3.0,93,0.01,,,0.06,weatherlink.com 1.10,2013-04-29 10:27:00,
2013-04-29 03:42:00,44.9,43.0,29.91,ESE,117,0.0,6.0,93,0.00,,,0.06,weatherlink.com 1.10,2013-04-29 10:42:00,
2013-04-29 03:57:00,44.7,43.0,29.92,NW,314,1.0,7.0,92,0.00,,,0.06,weatherlink.com 1.10,2013-04-29 10:57:00,
2013-04-29 04:12:00,44.8,42.0,29.93,West,273,0.0,2.0,91,0.00,,,0.06,weatherlink.com 1.10,2013-04-29 11:12:00,
2013-04-29 04:27:00,44.7,42.0,29.94,SE,143,0.0,0.0,91,0.00,,,0.06,weatherlink.com 1.10,2013-04-29 11:27:00,
2013-04-29 04:43:00,44.7,42.0,29.94,WSW,248,0.0,2.0,89,0.00,,,0.06,weatherlink.com 1.10,2013-04-29 11:43:00,
2013-04-29 04:58:00,44.8,42.0,29.95,West,278,0.0,0.0,89,0.00,,,0.06,weatherlink.com 1.10,2013-04-29 11:58:00,
2013-04-29 05:13:00,44.9,42.0,29.95,West,275,0.0,0.0,88,0.02,,,0.08,weatherlink.com 1.10,2013-04-29 12:13:00,
2013-04-29 05:28:00,44.6,42.0,29.95,SW,215,0.0,0.0,91,0.02,,,0.08,weatherlink.com 1.10,2013-04-29 12:28:00,
2013-04-29 05:43:00,44.4,43.0,29.96,SW,215,0.0,0.0,93,0.05,,,0.11,weatherlink.com 1.10,2013-04-29 12:43:00,
2013-04-29 05:58:00,44.1,43.0,29.96,ENE,70,0.0,0.0,94,0.07,,,0.13,weatherlink.com 1.10,2013-04-29 12:58:00,
2013-04-29 06:13:00,43.7,42.0,29.96,ENE,72,0.0,2.0,95,0.07,,,0.15,weatherlink.com 1.10,2013-04-29 13:13:00,
2013-04-29 06:28:00,43.6,42.0,29.97,West,273,0.0,2.0,95,0.07,,,0.15,weatherlink.com 1.10,2013-04-29 13:28:00,
2013-04-29 06:43:00,43.5,43.0,29.98,NNW,333,0.0,1.0,96,0.04,,,0.15,weatherlink.com 1.10,2013-04-29 13:43:00,
2013-04-29 06:58:00,43.7,43.0,29.98,East,79,0.0,0.0,96,0.03,,,0.16,weatherlink.com 1.10,2013-04-29 13:58:00,
2013-04-29 07:13:00,43.6,43.0,29.99,East,81,0.0,2.0,96,0.01,,,0.16,weatherlink.com 1.10,2013-04-29 14:13:00,
2013-04-29 07:28:00,44.0,43.0,30.00,ENE,76,0.0,0.0,96,0.01,,,0.16,weatherlink.com 1.10,2013-04-29 14:28:00,
2013-04-29 07:43:00,43.7,42.0,30.00,ENE,70,0.0,4.0,95,0.01,,,0.16,weatherlink.com 1.10,2013-04-29 14:43:00,
2013-04-29 07:58:00,43.9,43.0,30.00,ENE,73,1.0,5.0,96,0.00,,,0.16,weatherlink.com 1.10,2013-04-29 14:58:00,
2013-04-29 08:13:00,43.4,42.0,30.01,East,90,4.0,8.0,95,0.00,,,0.16,weatherlink.com 1.10,2013-04-29 15:13:00,
2013-04-29 08:28:00,43.3,42.0,30.02,ENE,76,1.0,2.0,94,0.00,,,0.16,weatherlink.com 1.10,2013-04-29 15:28:00,
2013-04-29 08:43:00,43.6,42.0,30.02,East,80,3.0,5.0,95,0.00,,,0.16,weatherlink.com 1.10,2013-04-29 15:43:00,
2013-04-29 08:58:00,45.2,43.0,30.02,East,84,0.0,2.0,91,0.00,,,0.16,weatherlink.com 1.10,2013-04-29 15:58:00,
2013-04-29 09:13:00,45.4,44.0,30.03,East,99,0.0,4.0,93,0.00,,,0.16,weatherlink.com 1.10,2013-04-29 16:13:00,
2013-04-29 09:28:00,48.1,46.0,30.03,NE,40,0.0,1.0,91,0.00,,,0.16,weatherlink.com 1.10,2013-04-29 16:28:00,
2013-04-29 09:43:00,49.8,46.0,30.03,East,92,0.0,3.0,88,0.00,,,0.16,weatherlink.com 1.10,2013-04-29 16:43:00,
2013-04-29 09:58:00,49.3,43.0,30.03,ENE,68,0.0,6.0,80,0.00,,,0.16,weatherlink.com 1.10,2013-04-29 16:58:00,
2013-04-29 10:13:00,48.8,43.0,30.04,West,259,1.0,4.0,79,0.00,,,0.16,weatherlink.com 1.10,2013-04-29 17:13:00,
2013-04-29 10:28:00,51.1,42.0,30.04,WNW,290,2.0,6.0,70,0.00,,,0.16,weatherlink.com 1.10,2013-04-29 17:28:00,
2013-04-29 10:43:00,51.7,39.0,30.04,WNW,297,1.0,6.0,63,0.00,,,0.16,weatherlink.com 1.10,2013-04-29 17:43:00,
2013-04-29 11:13:00,52.5,47.0,30.04,WNW,300,1.0,5.0,80,0.00,,,0.16,weatherlink.com 1.10,2013-04-29 18:13:00,
2013-04-29 11:29:00,52.4,45.0,30.05,NE,47,1.0,5.0,76,0.00,,,0.16,weatherlink.com 1.10,2013-04-29 18:29:00,
2013-04-29 11:44:00,52.8,44.0,30.05,North,8,2.0,6.0,72,0.00,,,0.16,weatherlink.com 1.10,2013-04-29 18:44:00,
2013-04-29 11:59:00,53.1,44.0,30.05,NW,314,1.0,5.0,71,0.00,,,0.16,weatherlink.com 1.10,2013-04-29 18:59:00,
2013-04-29 12:14:00,54.4,44.0,30.05,NNW,335,1.0,6.0,68,0.00,,,0.16,weatherlink.com 1.10,2013-04-29 19:14:00,
2013-04-29 12:29:00,53.1,39.0,30.05,East,84,4.0,9.0,59,0.00,,,0.16,weatherlink.com 1.10,2013-04-29 19:29:00,
2013-04-29 12:44:00,51.0,41.0,30.06,ENE,63,2.0,3.0,69,0.00,,,0.16,weatherlink.com 1.10,2013-04-29 19:44:00,
2013-04-29 12:59:00,51.5,42.0,30.06,SSW,207,0.0,6.0,71,0.00,,,0.16,weatherlink.com 1.10,2013-04-29 19:59:00,
2013-04-29 13:14:00,49.5,43.0,30.07,ENE,65,0.0,4.0,78,0.00,,,0.16,weatherlink.com 1.10,2013-04-29 20:14:00,
2013-04-29 13:29:00,48.6,45.0,30.07,NNE,25,0.0,2.0,87,0.01,,,0.17,weatherlink.com 1.10,2013-04-29 20:29:00,
2013-04-29 13:44:00,50.1,45.0,30.06,ENE,68,0.0,2.0,82,0.01,,,0.17,weatherlink.com 1.10,2013-04-29 20:44:00,
2013-04-29 13:59:00,52.0,37.0,30.06,West,269,3.0,5.0,57,0.01,,,0.17,weatherlink.com 1.10,2013-04-29 20:59:00,
2013-04-29 14:14:00,52.8,40.0,30.07,WSW,251,1.0,4.0,62,0.01,,,0.17,weatherlink.com 1.10,2013-04-29 21:14:00,
2013-04-29 14:29:00,52.7,37.0,30.06,East,86,2.0,5.0,55,0.00,,,0.17,weatherlink.com 1.10,2013-04-29 21:29:00,
2013-04-29 14:44:00,52.8,39.0,30.06,ENE,74,1.0,4.0,60,0.00,,,0.17,weatherlink.com 1.10,2013-04-29 21:44:00,
2013-04-29 14:59:00,53.7,38.0,30.06,ENE,65,5.0,6.0,55,0.00,,,0.17,weatherlink.com 1.10,2013-04-29 21:59:00,
2013-04-29 15:14:00,55.0,35.0,30.05,ENE,77,0.0,5.0,47,0.00,,,0.17,weatherlink.com 1.10,2013-04-29 22:14:00,
2013-04-29 15:29:00,55.7,38.0,30.05,ENE,61,3.0,4.0,52,0.00,,,0.17,weatherlink.com 1.10,2013-04-29 22:29:00,
2013-04-29 15:44:00,54.8,37.0,30.05,WNW,283,0.0,4.0,51,0.00,,,0.17,weatherlink.com 1.10,2013-04-29 22:44:00,
2013-04-29 15:59:00,54.6,35.0,30.05,WSW,256,0.0,4.0,47,0.00,,,0.17,weatherlink.com 1.10,2013-04-29 22:59:00,
2013-04-29 16:14:00,53.6,36.0,30.05,West,273,2.0,4.0,52,0.00,,,0.17,weatherlink.com 1.10,2013-04-29 23:14:00,
2013-04-29 16:29:00,54.6,38.0,30.05,East,81,0.0,2.0,54,0.00,,,0.17,weatherlink.com 1.10,2013-04-29 23:29:00,
2013-04-29 16:44:00,56.6,37.0,30.05,SE,132,1.0,5.0,49,0.00,,,0.17,weatherlink.com 1.10,2013-04-29 23:44:00,
2013-04-29 16:59:00,55.4,37.0,30.05,East,91,0.0,5.0,51,0.00,,,0.17,weatherlink.com 1.10,2013-04-29 23:59:00,
2013-04-29 17:14:00,55.6,38.0,30.05,SW,236,2.0,4.0,53,0.00,,,0.17,weatherlink.com 1.10,2013-04-30 00:14:00,
2013-04-29 17:29:00,55.9,41.0,30.05,ENE,72,1.0,3.0,57,0.00,,,0.17,weatherlink.com 1.10,2013-04-30 00:29:00,
2013-04-29 17:44:00,54.8,39.0,30.05,NE,46,9.0,9.0,56,0.00,,,0.17,weatherlink.com 1.10,2013-04-30 00:44:00,
2013-04-29 17:59:00,51.7,39.0,30.06,NE,48,6.0,6.0,62,0.00,,,0.17,weatherlink.com 1.10,2013-04-30 00:59:00,
2013-04-29 18:14:00,50.8,38.0,30.06,NE,49,4.0,7.0,62,0.00,,,0.17,weatherlink.com 1.10,2013-04-30 01:14:00,
2013-04-29 18:29:00,50.3,38.0,30.06,NE,48,6.0,11.0,64,0.00,,,0.17,weatherlink.com 1.10,2013-04-30 01:29:00,
2013-04-29 18:44:00,49.5,39.0,30.06,ENE,74,3.0,10.0,68,0.00,,,0.17,weatherlink.com 1.10,2013-04-30 01:44:00,
2013-04-29 18:59:00,48.3,39.0,30.06,ENE,70,5.0,9.0,70,0.00,,,0.17,weatherlink.com 1.10,2013-04-30 01:59:00,
2013-04-29 19:14:00,48.0,39.0,30.07,ESE,107,3.0,6.0,72,0.00,,,0.17,weatherlink.com 1.10,2013-04-30 02:14:00,
2013-04-29 19:29:00,47.9,39.0,30.07,East,79,2.0,6.0,72,0.00,,,0.17,weatherlink.com 1.10,2013-04-30 02:29:00,
2013-04-29 19:43:00,47.6,39.0,30.07,NE,47,3.0,7.0,72,0.00,,,0.17,weatherlink.com 1.10,2013-04-30 02:43:00,
2013-04-29 19:58:00,46.8,40.0,30.07,NE,51,4.0,8.0,77,0.00,,,0.17,weatherlink.com 1.10,2013-04-30 02:58:00,
2013-04-29 20:13:00,46.1,39.0,30.08,ENE,76,2.0,9.0,77,0.00,,,0.17,weatherlink.com 1.10,2013-04-30 03:13:00,
2013-04-29 20:29:00,45.7,39.0,30.08,East,92,2.0,8.0,78,0.00,,,0.17,weatherlink.com 1.10,2013-04-30 03:29:00,
2013-04-29 20:43:00,45.1,40.0,30.09,East,81,2.0,5.0,81,0.00,,,0.17,weatherlink.com 1.10,2013-04-30 03:43:00,
2013-04-29 20:59:00,44.5,40.0,30.09,ENE,68,3.0,7.0,83,0.00,,,0.17,weatherlink.com 1.10,2013-04-30 03:59:00,
2013-04-29 21:14:00,44.4,40.0,30.10,East,96,1.0,6.0,83,0.00,,,0.17,weatherlink.com 1.10,2013-04-30 04:14:00,
2013-04-29 21:29:00,44.1,40.0,30.10,North,1,2.0,9.0,85,0.00,,,0.17,weatherlink.com 1.10,2013-04-30 04:29:00,
2013-04-29 21:44:00,43.9,40.0,30.11,ESE,103,2.0,5.0,85,0.00,,,0.17,weatherlink.com 1.10,2013-04-30 04:44:00,
2013-04-29 21:59:00,43.8,39.0,30.11,ENE,70,4.0,6.0,84,0.00,,,0.17,weatherlink.com 1.10,2013-04-30 04:59:00,
2013-04-29 22:14:00,43.5,40.0,30.11,East,84,2.0,4.0,87,0.00,,,0.17,weatherlink.com 1.10,2013-04-30 05:14:00,
2013-04-29 22:29:00,42.5,40.0,30.11,East,83,1.0,3.0,89,0.00,,,0.17,weatherlink.com 1.10,2013-04-30 05:29:00,
2013-04-29 22:44:00,42.0,40.0,30.11,ENE,65,5.0,5.0,91,0.01,,,0.18,weatherlink.com 1.10,2013-04-30 05:44:00,
2013-04-29 22:59:00,42.1,40.0,30.12,ESE,110,0.0,5.0,92,0.01,,,0.18,weatherlink.com 1.10,2013-04-30 05:59:00,
2013-04-29 23:14:00,42.1,40.0,30.12,SSE,161,1.0,3.0,93,0.01,,,0.18,weatherlink.com 1.10,2013-04-30 06:14:00,
2013-04-29 23:29:00,41.7,40.0,30.12,ESE,105,2.0,4.0,92,0.01,,,0.18,weatherlink.com 1.10,2013-04-30 06:29:00,
2013-04-29 23:44:00,41.4,39.0,30.12,East,87,4.0,7.0,91,0.00,,,0.18,weatherlink.com 1.10,2013-04-30 06:44:00,
2013-04-29 23:59:00,41.1,39.0,30.12,East,82,0.0,4.0,91,0.00,,,0.18,weatherlink.com 1.10,2013-04-30 06:59:00,